AAL2853 KMIA-TJSJ

Flight info

Callsign AAL2853
Flight time N/A
Altitude 35000
Route KLADA2 BITAC Y290 BEANO
Aircraft A21N/M-SDE2E3FGHIJ1RWXY/LB1

Departure

Time 2026-05-04 19:52
Airport Miami International Airport (KMIA)

Arrival

Time N/A
Airport Luis Munoz Marin International Airport (TJSJ)
Time Latitude Longitude Altitude Speed Heading
2026-05-04 19:07 25.79802 -80.27473 21 ft 0 kts 177°
2026-05-04 19:36 25.79815 -80.27474 21 ft 3 kts 172°
2026-05-04 19:36 25.79834 -80.27479 23 ft 3 kts 152°
2026-05-04 19:36 25.79848 -80.27489 21 ft 3 kts 137°
2026-05-04 19:36 25.79858 -80.27506 21 ft 3 kts 113°
2026-05-04 19:37 25.79866 -80.27524 21 ft 3 kts 119°
2026-05-04 19:37 25.79877 -80.27544 23 ft 3 kts 123°
2026-05-04 19:37 25.79888 -80.27563 21 ft 3 kts 117°
2026-05-04 19:37 25.79894 -80.27583 20 ft 3 kts 90°
2026-05-04 19:38 25.79894 -80.27579 20 ft 3 kts 92°
2026-05-04 19:38 25.79892 -80.27556 22 ft 3 kts 95°
2026-05-04 19:38 25.79897 -80.27542 23 ft 3 kts 46°
2026-05-04 19:38 25.79913 -80.27538 21 ft 3 kts
2026-05-04 19:39 25.79919 -80.27538 21 ft 1 kts 357°
2026-05-04 19:41 25.79920 -80.27538 21 ft 1 kts 357°
2026-05-04 19:41 25.79931 -80.27538 20 ft 2 kts 358°
2026-05-04 19:42 25.79951 -80.27540 22 ft 3 kts 349°
2026-05-04 19:42 25.79974 -80.27553 20 ft 5 kts 309°
2026-05-04 19:42 25.79988 -80.27591 20 ft 6 kts 290°
2026-05-04 19:42 25.80021 -80.27618 20 ft 7 kts 342°
2026-05-04 19:43 25.80059 -80.27650 21 ft 8 kts 294°
2026-05-04 19:43 25.80063 -80.27714 20 ft 9 kts 268°
2026-05-04 19:43 25.80059 -80.27787 20 ft 10 kts 267°
2026-05-04 19:43 25.80055 -80.27868 20 ft 11 kts 268°
2026-05-04 19:44 25.80054 -80.27961 19 ft 13 kts 269°
2026-05-04 19:44 25.80054 -80.28066 19 ft 15 kts 270°
2026-05-04 19:44 25.80048 -80.28190 22 ft 17 kts 266°
2026-05-04 19:44 25.80037 -80.28325 20 ft 18 kts 267°
2026-05-04 19:45 25.80030 -80.28472 20 ft 20 kts 267°
2026-05-04 19:45 25.80023 -80.28631 21 ft 21 kts 268°
2026-05-04 19:45 25.80017 -80.28803 22 ft 23 kts 268°
2026-05-04 19:45 25.80009 -80.28985 23 ft 24 kts 267°
2026-05-04 19:46 25.80000 -80.29177 22 ft 26 kts 267°
2026-05-04 19:46 25.79994 -80.29378 20 ft 27 kts 268°
2026-05-04 19:46 25.79989 -80.29514 20 ft 17 kts 268°
2026-05-04 19:46 25.79981 -80.29651 20 ft 19 kts 267°
2026-05-04 19:47 25.79976 -80.29785 20 ft 11 kts 268°
2026-05-04 19:47 25.79974 -80.29856 19 ft 4 kts 268°
2026-05-04 19:47 25.79972 -80.29884 19 ft 0 kts 266°
2026-05-04 19:48 25.79972 -80.29888 20 ft 2 kts 266°
2026-05-04 19:48 25.79971 -80.29909 19 ft 4 kts 266°
2026-05-04 19:48 25.79972 -80.29945 19 ft 6 kts 282°
2026-05-04 19:49 25.79974 -80.29952 19 ft 0 kts 285°
2026-05-04 19:51 25.79975 -80.29959 19 ft 3 kts 285°
2026-05-04 19:51 25.79988 -80.30007 19 ft 9 kts 286°
2026-05-04 19:51 25.80008 -80.30083 21 ft 12 kts 295°
2026-05-04 19:51 25.80068 -80.30069 19 ft 16 kts 86°
2026-05-04 19:52 25.80090 -80.29717 19 ft 82 kts 90°
2026-05-04 19:52 25.80124 -80.28833 23 ft 146 kts 87°
2026-05-04 19:52 25.80163 -80.27567 320 ft 166 kts 91°
2026-05-04 19:52 25.79871 -80.26333 968 ft 170 kts 110°
2026-05-04 19:53 25.79416 -80.25083 1516 ft 182 kts 111°
2026-05-04 19:53 25.78894 -80.23734 2007 ft 204 kts 112°
2026-05-04 19:53 25.78253 -80.22247 2672 ft 222 kts 115°
2026-05-04 19:53 25.77466 -80.20642 3155 ft 249 kts 115°
2026-05-04 19:54 25.76884 -80.18775 3891 ft 261 kts 106°
2026-05-04 19:54 25.76170 -80.16897 4795 ft 268 kts 116°
2026-05-04 19:54 25.75291 -80.15052 5712 ft 273 kts 118°
2026-05-04 19:54 25.74385 -80.13206 6606 ft 277 kts 118°
2026-05-04 19:55 25.73454 -80.11278 7491 ft 282 kts 115°
2026-05-04 19:55 25.72716 -80.09261 8333 ft 288 kts 110°
2026-05-04 19:55 25.72030 -80.07159 9141 ft 293 kts 109°
2026-05-04 19:55 25.71333 -80.05003 9936 ft 299 kts 110°
2026-05-04 19:56 25.70612 -80.02802 10564 ft 312 kts 111°
2026-05-04 19:56 25.69840 -80.00458 10925 ft 335 kts 111°
2026-05-04 19:56 25.69012 -79.97956 11267 ft 357 kts 111°
2026-05-04 19:56 25.68142 -79.95333 11674 ft 373 kts 111°
2026-05-04 19:57 25.67232 -79.92593 12402 ft 380 kts 111°
2026-05-04 19:57 25.66314 -79.89827 13185 ft 384 kts 111°
2026-05-04 19:57 25.65387 -79.87036 13918 ft 389 kts 111°
2026-05-04 19:57 25.64441 -79.84191 14635 ft 394 kts 111°
2026-05-04 19:58 25.63485 -79.81321 15302 ft 399 kts 111°
2026-05-04 19:58 25.62532 -79.78455 15942 ft 404 kts 111°
2026-05-04 19:58 25.61553 -79.75518 16562 ft 408 kts 111°
2026-05-04 19:58 25.60563 -79.72546 17166 ft 413 kts 111°
2026-05-04 19:59 25.59546 -79.69551 17746 ft 417 kts 113°
2026-05-04 19:59 25.58457 -79.66552 18312 ft 421 kts 113°
2026-05-04 19:59 25.57348 -79.63517 18872 ft 425 kts 113°
2026-05-04 19:59 25.56242 -79.60496 19420 ft 429 kts 113°
2026-05-04 20:00 25.55114 -79.57415 19971 ft 433 kts 113°
2026-05-04 20:00 25.53976 -79.54301 20521 ft 436 kts 113°
2026-05-04 20:00 25.52846 -79.51217 21048 ft 439 kts 113°
2026-05-04 20:00 25.51693 -79.48065 21580 ft 443 kts 113°
2026-05-04 20:01 25.50528 -79.44889 22107 ft 446 kts 113°
2026-05-04 20:01 25.49351 -79.41699 22628 ft 450 kts 113°
2026-05-04 20:01 25.48165 -79.38476 23124 ft 453 kts 113°
2026-05-04 20:01 25.46969 -79.35217 23581 ft 457 kts 113°
2026-05-04 20:02 25.45764 -79.31934 24036 ft 460 kts 113°
2026-05-04 20:02 25.44558 -79.28652 24467 ft 463 kts 113°
2026-05-04 20:02 25.43341 -79.25337 24878 ft 466 kts 113°
2026-05-04 20:02 25.42125 -79.22032 25281 ft 470 kts 113°
2026-05-04 20:03 25.40882 -79.18673 25675 ft 473 kts 113°
2026-05-04 20:03 25.39632 -79.15293 26073 ft 476 kts 113°
2026-05-04 20:03 25.38375 -79.11890 26447 ft 479 kts 113°
2026-05-04 20:03 25.37116 -79.08476 26820 ft 482 kts 113°
2026-05-04 20:04 25.35849 -79.05055 27194 ft 485 kts 114°
2026-05-04 20:04 25.34564 -79.01592 27561 ft 488 kts 113°
2026-05-04 20:04 25.33275 -78.98119 27920 ft 491 kts 113°
2026-05-04 20:04 25.31967 -78.94606 28257 ft 493 kts 114°
2026-05-04 20:05 25.30655 -78.91076 28620 ft 495 kts 114°
2026-05-04 20:05 25.29358 -78.87589 29046 ft 495 kts 114°
2026-05-04 20:05 25.28044 -78.84060 29500 ft 494 kts 114°
2026-05-04 20:05 25.26737 -78.80547 29930 ft 494 kts 114°
2026-05-04 20:06 25.25428 -78.77040 30353 ft 493 kts 114°
2026-05-04 20:06 25.24126 -78.73551 30805 ft 492 kts 114°
2026-05-04 20:06 25.22822 -78.70061 31244 ft 490 kts 114°
2026-05-04 20:06 25.21521 -78.66582 31659 ft 489 kts 114°
2026-05-04 20:07 25.20224 -78.63113 32095 ft 487 kts 114°
2026-05-04 20:07 25.18951 -78.59699 32491 ft 486 kts 114°
2026-05-04 20:07 25.17618 -78.56254 32858 ft 485 kts 116°
2026-05-04 20:07 25.16237 -78.52873 33231 ft 484 kts 116°
2026-05-04 20:08 25.14853 -78.49491 33606 ft 482 kts 116°
2026-05-04 20:08 25.13470 -78.46119 33952 ft 481 kts 117°
2026-05-04 20:08 25.12093 -78.42753 34264 ft 480 kts 117°
2026-05-04 20:08 25.10712 -78.39381 34536 ft 480 kts 117°
2026-05-04 20:09 25.09331 -78.36019 34766 ft 481 kts 117°
2026-05-04 20:09 25.07947 -78.32654 35004 ft 482 kts 117°
2026-05-04 20:09 25.06581 -78.29335 35052 ft 480 kts 117°
2026-05-04 20:10 25.03807 -78.22609 35033 ft 479 kts 117°
2026-05-04 20:10 25.01060 -78.15943 35021 ft 479 kts 117°
2026-05-04 20:11 24.98291 -78.09249 35019 ft 479 kts 117°
2026-05-04 20:11 24.95522 -78.02555 35024 ft 479 kts 117°
2026-05-04 20:12 24.92763 -77.95897 35017 ft 479 kts 117°
2026-05-04 20:12 24.89988 -77.89205 35018 ft 479 kts 117°
2026-05-04 20:13 24.87214 -77.82529 35023 ft 479 kts 117°
2026-05-04 20:13 24.84450 -77.75902 35022 ft 479 kts 117°
2026-05-04 20:14 24.81668 -77.69219 35015 ft 479 kts 117°
2026-05-04 20:14 24.78896 -77.62586 35017 ft 479 kts 117°
2026-05-04 20:15 24.76102 -77.55911 35021 ft 479 kts 117°
2026-05-04 20:15 24.73183 -77.49325 35018 ft 478 kts 120°
2026-05-04 20:16 24.70216 -77.42825 35020 ft 478 kts 120°
2026-05-04 20:16 24.67225 -77.36276 35020 ft 477 kts 120°
2026-05-04 20:17 24.64245 -77.29783 35020 ft 478 kts 120°
2026-05-04 20:17 24.61254 -77.23253 35021 ft 478 kts 120°
2026-05-04 20:18 24.58262 -77.16722 35022 ft 478 kts 120°
2026-05-04 20:18 24.55262 -77.10200 35024 ft 478 kts 120°
2026-05-04 20:19 24.52253 -77.03682 35018 ft 478 kts 120°
2026-05-04 20:19 24.49258 -76.97183 35020 ft 478 kts 120°
2026-05-04 20:20 24.46257 -76.90665 35024 ft 478 kts 120°
2026-05-04 20:20 24.43263 -76.84187 35022 ft 478 kts 120°
2026-05-04 20:21 24.40241 -76.77670 35021 ft 478 kts 120°
2026-05-04 20:21 24.35735 -76.67959 35018 ft 478 kts 120°
2026-05-04 20:22 24.32709 -76.61434 35022 ft 478 kts 120°
2026-05-04 20:22 24.29691 -76.54945 35024 ft 478 kts 120°
2026-05-04 20:23 24.26683 -76.48481 35030 ft 478 kts 120°
2026-05-04 20:23 24.23658 -76.41999 35029 ft 478 kts 120°
2026-05-04 20:24 24.20624 -76.35501 35030 ft 478 kts 120°
2026-05-04 20:24 24.17613 -76.29061 35032 ft 478 kts 120°
2026-05-04 20:25 24.14574 -76.22572 35032 ft 477 kts 120°
2026-05-04 20:25 24.11535 -76.16099 35030 ft 477 kts 120°
2026-05-04 20:26 24.08514 -76.09664 35031 ft 477 kts 120°
2026-05-04 20:26 24.05460 -76.03176 35030 ft 477 kts 120°
2026-05-04 20:27 24.02430 -75.96746 35030 ft 477 kts 120°
2026-05-04 20:27 23.99386 -75.90285 35030 ft 477 kts 120°
2026-05-04 20:28 23.96358 -75.83867 35032 ft 477 kts 120°
2026-05-04 20:28 23.93308 -75.77425 35034 ft 476 kts 120°
2026-05-04 20:29 23.90277 -75.71027 35034 ft 477 kts 120°
2026-05-04 20:29 23.87222 -75.64588 35040 ft 477 kts 120°
2026-05-04 20:30 23.84161 -75.58140 35037 ft 477 kts 120°
2026-05-04 20:30 23.81122 -75.51739 35038 ft 476 kts 120°
2026-05-04 20:31 23.78055 -75.45301 35041 ft 477 kts 120°
2026-05-04 20:31 23.75008 -75.38907 35039 ft 477 kts 120°
2026-05-04 20:32 23.71936 -75.32473 35042 ft 477 kts 120°
2026-05-04 20:32 23.68875 -75.26072 35041 ft 477 kts 120°
2026-05-04 20:33 23.66324 -75.20737 35039 ft 477 kts 120°
2026-05-04 20:33 23.63245 -75.14307 35042 ft 477 kts 120°
2026-05-04 20:34 23.60159 -75.07881 35041 ft 477 kts 120°
2026-05-04 20:34 23.57097 -75.01505 35040 ft 477 kts 120°
2026-05-04 20:35 23.54010 -74.95088 35046 ft 477 kts 120°
2026-05-04 20:35 23.50946 -74.88724 35043 ft 477 kts 120°
2026-05-04 20:36 23.47859 -74.82321 35043 ft 477 kts 120°
2026-05-04 20:36 23.44760 -74.75912 35041 ft 477 kts 121°
2026-05-04 20:37 23.41666 -74.69518 35042 ft 477 kts 120°
2026-05-04 20:37 23.38587 -74.63158 35032 ft 477 kts 121°
2026-05-04 20:38 23.35485 -74.56760 35030 ft 477 kts 120°
2026-05-04 20:38 23.32402 -74.50423 35032 ft 476 kts 121°
2026-05-04 20:39 23.29297 -74.44030 35030 ft 476 kts 120°
2026-05-04 20:39 23.26193 -74.37642 35030 ft 476 kts 121°
2026-05-04 20:40 23.23109 -74.31312 35030 ft 476 kts 121°
2026-05-04 20:40 23.19994 -74.24936 35030 ft 476 kts 121°
2026-05-04 20:41 23.16901 -74.18603 35031 ft 476 kts 121°
2026-05-04 20:41 23.13784 -74.12242 35031 ft 476 kts 121°
2026-05-04 20:42 23.10668 -74.05872 35029 ft 476 kts 121°
2026-05-04 20:42 23.07562 -73.99543 35032 ft 476 kts 121°
2026-05-04 20:43 23.04443 -73.93191 35026 ft 474 kts 121°
2026-05-04 20:43 23.01354 -73.86907 35024 ft 474 kts 121°
2026-05-04 20:44 22.98232 -73.80580 35019 ft 474 kts 121°
2026-05-04 20:44 22.95128 -73.74292 35025 ft 474 kts 121°
2026-05-04 20:45 22.92009 -73.67976 35021 ft 474 kts 121°
2026-05-04 20:45 22.88906 -73.61696 35019 ft 474 kts 121°
2026-05-04 20:46 22.85782 -73.55376 35023 ft 474 kts 121°
2026-05-04 20:46 22.82663 -73.49073 35018 ft 474 kts 121°
2026-05-04 20:47 22.79537 -73.42778 35021 ft 474 kts 121°
2026-05-04 20:47 22.76420 -73.36504 35022 ft 474 kts 121°
2026-05-04 20:48 22.73290 -73.30214 35007 ft 474 kts 121°
2026-05-04 20:48 22.70172 -73.23958 35014 ft 474 kts 121°
2026-05-04 20:49 22.67036 -73.17673 35014 ft 474 kts 121°
2026-05-04 20:49 22.63919 -73.11423 35008 ft 473 kts 121°
2026-05-04 20:50 22.60780 -73.05147 35007 ft 473 kts 121°
2026-05-04 20:50 22.57643 -72.98877 35015 ft 473 kts 121°
2026-05-04 20:51 22.54519 -72.92635 35007 ft 473 kts 121°
2026-05-04 20:51 22.51377 -72.86365 35000 ft 473 kts 121°
2026-05-04 20:52 22.48230 -72.80105 35004 ft 473 kts 121°
2026-05-04 20:52 22.45102 -72.73887 35001 ft 473 kts 121°
2026-05-04 20:53 22.41956 -72.67631 34999 ft 473 kts 121°
2026-05-04 20:53 22.38805 -72.61377 34996 ft 473 kts 121°
2026-05-04 20:54 22.35650 -72.55136 35003 ft 473 kts 121°
2026-05-04 20:54 22.32521 -72.48935 34993 ft 473 kts 121°
2026-05-04 20:55 22.29370 -72.42696 35005 ft 472 kts 121°
2026-05-04 20:55 22.26216 -72.36476 35000 ft 472 kts 121°
2026-05-04 20:56 22.23055 -72.30248 35008 ft 472 kts 121°
2026-05-04 20:56 22.19923 -72.24078 34994 ft 472 kts 121°
2026-05-04 20:57 22.16751 -72.17844 34985 ft 472 kts 121°
2026-05-04 20:57 22.13605 -72.11666 34987 ft 472 kts 121°
2026-05-04 20:58 22.10443 -72.05456 34987 ft 472 kts 121°
2026-05-04 20:58 22.07275 -71.99248 34993 ft 472 kts 121°
2026-05-04 20:59 22.04103 -71.93039 34986 ft 472 kts 121°
2026-05-04 20:59 22.00955 -71.86882 35001 ft 471 kts 121°
2026-05-04 21:00 21.97779 -71.80680 34996 ft 471 kts 121°
2026-05-04 21:00 21.94629 -71.74536 34991 ft 471 kts 121°
2026-05-04 21:01 21.91464 -71.68361 35002 ft 471 kts 121°
2026-05-04 21:01 21.88293 -71.62185 35002 ft 470 kts 121°
2026-05-04 21:02 21.85113 -71.56003 34988 ft 471 kts 121°
2026-05-04 21:02 21.81932 -71.49833 34995 ft 471 kts 121°
2026-05-04 21:03 21.78753 -71.43666 34985 ft 471 kts 121°
2026-05-04 21:03 21.75588 -71.37532 34993 ft 470 kts 121°
2026-05-04 21:04 21.72420 -71.31401 34985 ft 471 kts 121°
2026-05-04 21:04 21.69230 -71.25237 34981 ft 470 kts 121°
2026-05-04 21:05 21.66041 -71.19088 34978 ft 470 kts 121°
2026-05-04 21:05 21.62876 -71.12981 34979 ft 470 kts 121°
2026-05-04 21:06 21.59681 -71.06830 34980 ft 470 kts 121°
2026-05-04 21:06 21.56300 -71.00825 34979 ft 469 kts 126°
2026-05-04 21:07 21.52646 -70.95073 34980 ft 469 kts 126°
2026-05-04 21:07 21.48962 -70.89288 34974 ft 468 kts 126°
2026-05-04 21:08 21.45296 -70.83533 34969 ft 469 kts 126°
2026-05-04 21:08 21.41602 -70.77727 34972 ft 471 kts 126°
2026-05-04 21:09 21.37912 -70.71941 34974 ft 470 kts 126°
2026-05-04 21:09 21.34217 -70.66156 34972 ft 470 kts 126°
2026-05-04 21:10 21.30502 -70.60350 34970 ft 471 kts 126°
2026-05-04 21:10 21.26784 -70.54545 34963 ft 471 kts 126°
2026-05-04 21:11 21.23093 -70.48791 34960 ft 471 kts 126°
2026-05-04 21:11 21.19379 -70.42991 34961 ft 470 kts 126°
2026-05-04 21:12 21.15679 -70.37233 34961 ft 471 kts 126°
2026-05-04 21:12 21.11949 -70.31445 34957 ft 471 kts 126°
2026-05-04 21:13 21.08232 -70.25664 34960 ft 471 kts 126°
2026-05-04 21:13 21.04547 -70.19919 34960 ft 470 kts 126°
2026-05-04 21:14 21.00830 -70.14147 34959 ft 470 kts 126°
2026-05-04 21:14 20.97101 -70.08373 34960 ft 470 kts 126°
2026-05-04 21:15 20.93365 -70.02622 34957 ft 470 kts 126°
2026-05-04 21:15 20.89659 -69.96908 34957 ft 470 kts 126°
2026-05-04 21:16 20.85934 -69.91150 34951 ft 469 kts 126°
2026-05-04 21:16 20.82216 -69.85406 34953 ft 469 kts 126°
2026-05-04 21:17 20.78516 -69.79695 34956 ft 469 kts 126°
2026-05-04 21:17 20.74813 -69.73946 34947 ft 469 kts 126°
2026-05-04 21:18 20.71095 -69.68227 34950 ft 469 kts 126°
2026-05-04 21:18 20.67991 -69.63464 34954 ft 469 kts 126°
2026-05-04 21:19 20.64256 -69.57733 34945 ft 469 kts 126°
2026-05-04 21:19 20.60527 -69.52016 34952 ft 469 kts 126°
2026-05-04 21:20 20.56816 -69.46333 34962 ft 468 kts 126°
2026-05-04 21:20 20.53094 -69.40637 34970 ft 468 kts 126°
2026-05-04 21:21 20.49362 -69.34919 34978 ft 468 kts 126°
2026-05-04 21:21 20.45654 -69.29254 34980 ft 468 kts 126°
2026-05-04 21:22 20.41915 -69.23545 34979 ft 468 kts 126°
2026-05-04 21:22 20.38190 -69.17855 34981 ft 468 kts 126°
2026-05-04 21:23 20.34463 -69.12179 34980 ft 468 kts 126°
2026-05-04 21:23 20.30726 -69.06478 34981 ft 468 kts 126°
2026-05-04 21:24 20.27008 -69.00822 34982 ft 468 kts 126°
2026-05-04 21:24 20.23250 -68.95114 34981 ft 468 kts 126°
2026-05-04 21:25 20.19544 -68.89456 34979 ft 468 kts 126°
2026-05-04 21:25 20.15809 -68.83777 34982 ft 467 kts 126°
2026-05-04 21:26 20.12069 -68.78113 34981 ft 467 kts 126°
2026-05-04 21:26 20.08332 -68.72449 34986 ft 467 kts 126°
2026-05-04 21:27 20.04767 -68.66724 34986 ft 466 kts 124°
2026-05-04 21:27 20.01199 -68.60951 34989 ft 466 kts 124°
2026-05-04 21:28 19.97641 -68.55203 34987 ft 465 kts 124°
2026-05-04 21:28 19.94060 -68.49469 34986 ft 465 kts 124°
2026-05-04 21:29 19.90515 -68.43752 34991 ft 465 kts 124°
2026-05-04 21:29 19.86951 -68.38009 34984 ft 465 kts 124°
2026-05-04 21:30 19.83388 -68.32254 34990 ft 465 kts 124°
2026-05-04 21:30 19.79838 -68.26549 35009 ft 465 kts 124°
2026-05-04 21:31 19.74594 -68.18129 35026 ft 465 kts 124°
2026-05-04 21:32 19.71036 -68.12424 35024 ft 465 kts 124°
2026-05-04 21:32 19.67457 -68.06697 35023 ft 464 kts 124°
2026-05-04 21:32 19.65687 -68.03864 34755 ft 461 kts 124°
2026-05-04 21:33 19.63897 -68.00999 34472 ft 466 kts 124°
2026-05-04 21:33 19.62107 -67.98137 34226 ft 467 kts 124°
2026-05-04 21:33 19.60326 -67.95293 33970 ft 467 kts 124°
2026-05-04 21:33 19.58526 -67.92419 33714 ft 468 kts 124°
2026-05-04 21:34 19.56722 -67.89543 33469 ft 468 kts 124°
2026-05-04 21:34 19.54913 -67.86669 33217 ft 468 kts 124°
2026-05-04 21:34 19.53101 -67.83793 32965 ft 469 kts 124°
2026-05-04 21:34 19.51289 -67.80913 32715 ft 469 kts 124°
2026-05-04 21:35 19.49474 -67.78029 32463 ft 470 kts 124°
2026-05-04 21:35 19.47677 -67.75169 32220 ft 471 kts 124°
2026-05-04 21:35 19.45866 -67.72274 31964 ft 471 kts 124°
2026-05-04 21:35 19.44061 -67.69384 31714 ft 472 kts 124°
2026-05-04 21:36 19.42235 -67.66475 31464 ft 472 kts 124°
2026-05-04 21:36 19.40415 -67.63574 31128 ft 471 kts 124°
2026-05-04 21:36 19.38607 -67.60692 30555 ft 467 kts 124°
2026-05-04 21:36 19.36801 -67.57822 29957 ft 465 kts 124°
2026-05-04 21:37 19.35035 -67.55017 29365 ft 462 kts 124°
2026-05-04 21:37 19.33255 -67.52193 28764 ft 459 kts 124°
2026-05-04 21:37 19.31484 -67.49384 28183 ft 456 kts 124°
2026-05-04 21:37 19.29731 -67.46602 27672 ft 452 kts 124°
2026-05-04 21:38 19.27988 -67.43839 27323 ft 449 kts 124°
2026-05-04 21:38 19.26253 -67.41093 27036 ft 447 kts 124°
2026-05-04 21:38 19.24530 -67.38367 26777 ft 445 kts 124°
2026-05-04 21:38 19.22830 -67.35690 26533 ft 443 kts 124°
2026-05-04 21:39 19.21113 -67.32992 26194 ft 439 kts 124°
2026-05-04 21:39 19.19418 -67.30320 25655 ft 435 kts 124°
2026-05-04 21:39 19.17731 -67.27658 25072 ft 432 kts 124°
2026-05-04 21:39 19.16066 -67.25017 24459 ft 430 kts 124°
2026-05-04 21:40 19.14432 -67.22423 23833 ft 428 kts 124°
2026-05-04 21:40 19.12778 -67.19799 23227 ft 426 kts 124°
2026-05-04 21:40 19.11136 -67.17200 22642 ft 423 kts 124°
2026-05-04 21:40 19.09499 -67.14615 22036 ft 422 kts 124°
2026-05-04 21:41 19.07883 -67.12067 21430 ft 420 kts 124°
2026-05-04 21:41 19.06256 -67.09502 20818 ft 419 kts 124°
2026-05-04 21:41 19.04630 -67.06942 20224 ft 416 kts 124°
2026-05-04 21:41 19.03020 -67.04407 19665 ft 413 kts 124°
2026-05-04 21:42 19.01420 -67.01890 19121 ft 411 kts 124°
2026-05-04 21:42 18.99828 -66.99387 18598 ft 409 kts 124°
2026-05-04 21:42 18.98265 -66.96931 18105 ft 407 kts 124°
2026-05-04 21:42 18.96691 -66.94454 17606 ft 405 kts 124°
2026-05-04 21:43 18.95123 -66.91985 17078 ft 404 kts 124°
2026-05-04 21:43 18.93551 -66.89518 16562 ft 402 kts 124°
2026-05-04 21:43 18.91992 -66.87075 16068 ft 398 kts 124°
2026-05-04 21:43 18.90466 -66.84679 15573 ft 390 kts 124°
2026-05-04 21:44 18.88965 -66.82321 15095 ft 383 kts 124°
2026-05-04 21:44 18.87491 -66.80008 14631 ft 376 kts 124°
2026-05-04 21:44 18.86041 -66.77734 14139 ft 370 kts 124°
2026-05-04 21:44 18.84627 -66.75518 13680 ft 364 kts 124°
2026-05-04 21:45 18.83219 -66.73311 13236 ft 361 kts 124°
2026-05-04 21:45 18.81815 -66.71114 12811 ft 360 kts 124°
2026-05-04 21:45 18.80414 -66.68926 12382 ft 359 kts 124°
2026-05-04 21:45 18.79019 -66.66744 11938 ft 358 kts 124°
2026-05-04 21:46 18.77627 -66.64565 11474 ft 358 kts 124°
2026-05-04 21:46 18.76233 -66.62405 11098 ft 350 kts 126°
2026-05-04 21:46 18.74786 -66.60445 10977 ft 334 kts 129°
2026-05-04 21:46 18.73360 -66.58611 10932 ft 310 kts 129°
2026-05-04 21:47 18.72025 -66.56898 10749 ft 297 kts 129°
2026-05-04 21:47 18.70720 -66.55220 10375 ft 294 kts 129°
2026-05-04 21:47 18.69427 -66.53557 9973 ft 291 kts 129°
2026-05-04 21:47 18.68147 -66.51904 9577 ft 290 kts 129°
2026-05-04 21:48 18.66882 -66.50288 9201 ft 288 kts 130°
2026-05-04 21:48 18.65569 -66.48703 8814 ft 285 kts 131°
2026-05-04 21:48 18.64257 -66.47140 8446 ft 283 kts 131°
2026-05-04 21:48 18.62956 -66.45592 8070 ft 280 kts 131°
2026-05-04 21:49 18.62520 -66.45074 7935 ft 280 kts 131°